Location: Bollinger Creek
(32.4513°N, 83.3802°W)
Time: 03:58:17
(UTC+00:00)

Daily predictions for brighter satellites

Satellite Brightness Start Highest point End
(mag) Time Altitude Azimuth Time Altitude Azimuth Time Altitude Azimuth
Cosmos 2263 Rocket 2.7 01:07:31 10° N 01:12:57 44° ENE 01:18:20 10° SE
Cosmos 1140 Rocket 3.5 01:08:37 10° NNW 01:13:52 71° ENE 01:19:03 10° SSE
Lacrosse 5 3.2 01:10:06 10° NNW 01:14:24 27° NE 01:18:42 10° E
ERS-2 2.2 01:11:37 10° NNE 01:15:12 58° ESE 01:18:47 10° S
Cosmos 2221 Rocket 4.2 01:11:33 10° SSW 01:15:57 61° W 01:20:21 10° N
Lacrosse 5 rocket 1.2 01:13:21 10° SSW 01:17:05 51° SE 01:20:39 10° NE
Okean 2 Rocket 3.1 01:12:53 10° N 01:17:24 76° E 01:21:55 10° S
Aureole 2 Rocket 3.6 01:18:27 10° NW 01:20:27 24° WSW 01:22:22 10° SSW
Delta 128 4.0 01:17:55 10° WSW 01:22:14 46° S 01:26:31 10° ESE
Meteor 1-22 Rocket 4.3 01:18:26 10° N 01:24:12 64° E 01:29:40 10° SSE
Cosmos 2151 Rocket 3.5 01:23:20 10° N 01:27:44 76° E 01:32:06 10° S
Centaur D-1AR AC-39 4.1 01:16:14 10° SW 01:28:27 21° S 01:32:44 11° SE
Cosmos 1300 Rocket 4.3 01:25:10 10° NNW 01:29:22 53° W 01:33:34 10° S
Cosmos 1674 Rocket 3.7 01:26:19 10° S 01:30:44 80° W 01:35:06 10° N
Resurs 01 Rocket 3.0 01:29:00 11° ESE 01:32:08 23° ENE 01:35:35 10° NNE
Cosmos 2285 Rocket 4.2 01:26:19 10° SSW 01:32:44 83° WNW 01:39:13 10° NNE
Okean 2 3.3 01:29:45 10° S 01:33:49 78° E 01:37:54 10° N
Cosmos 2333 Rocket 3.6 01:34:19 12° SE 01:37:34 18° E 01:41:22 10° ENE
Cosmos 2219 Rocket 3.7 01:37:43 13° ESE 01:39:35 15° E 01:42:45 10° ENE
Cosmos 1400 Rocket 3.7 01:37:47 10° NNW 01:41:31 48° W 01:45:14 10° S
BREEZE M DEB (TANK) 3.9 01:41:11 10° WSW 01:41:42 11° SW 01:42:12 10° SW
Cosmos 1674 3.9 01:44:30 18° ESE 01:45:59 23° E 01:48:56 10° NE
Cosmos 1953 4.4 01:44:56 10° NE 01:46:51 13° ENE 01:47:50 12° E
Cosmos 1452 Rocket 3.6 01:46:15 10° SSW 01:51:32 85° WNW 01:56:49 10° NNE
ASTRO E2 2.7 01:48:36 10° WSW 01:52:30 57° SSE 01:55:26 17° E
Cosmos 1726 2.0 01:49:11 10° N 01:52:48 63° E 01:55:17 19° SSE
BREEZE-M DEB (TANK) 2.6 01:52:45 10° WNW 01:54:56 43° SW 01:57:42 18° SSE
FALCON 9 DEB 2.8 01:54:41 10° SW 01:57:47 86° NW 02:00:54 10° NE
Cosmos 2360 Rocket 2.1 01:57:20 10° SSW 02:02:58 79° ESE 02:08:37 10° NNE
SL-16 R/B 3.7 02:00:50 10° SW 02:06:06 39° WNW 02:11:24 10° N
Cosmos 2322 Rocket 3.1 02:01:01 10° SW 02:06:33 52° WNW 02:12:07 10° N
OBJECT-B 3.2 02:05:09 10° SSW 02:07:36 21° W 02:10:06 10° NW
ARIANE 5 R/B 4.4 02:08:03 16° E 02:09:10 17° ENE 02:12:02 10° NNE
Cosmos 1470 3.0 02:05:48 10° NNW 02:09:44 68° W 02:12:37 17° S
Cosmos 1331 Rocket 4.0 02:05:16 10° S 02:10:22 60° ESE 02:15:33 10° NNE
Centaur D-1AR AC-36 3.8 02:08:11 10° SW 02:10:23 14° S 02:10:28 14° S
ATLAS 3B R/B 2.6 02:04:14 10° S 02:10:33 56° ESE 02:17:00 10° NE
KM-V1 3.7 02:12:28 10° W 02:15:01 71° S 02:16:27 34° ESE
SPOT 1/Viking Rocket 4.1 02:13:48 26° ESE 02:16:02 40° ENE 02:20:48 10° N
Cosmos 1455 Rocket 3.8 02:13:48 10° NNE 02:17:54 35° E 02:19:00 31° ESE
Okean 1 Rocket 3.5 02:13:42 10° NNW 02:18:01 59° W 02:21:23 16° S
FALCON 9 DEB 4.4 02:18:43 10° WSW 02:21:38 37° NW 02:24:34 10° NNE
Cosmos 1153 Rocket 4.4 02:16:26 10° N 02:22:44 77° E 02:26:42 24° SSE
IGS 5A 3.4 02:22:05 31° S 02:24:02 88° WSW 02:28:13 10° NNW
Cosmos 2322 3.7 02:24:53 20° S 02:28:43 56° ESE 02:34:14 10° NNE
Meteor 1-16 Rocket 4.3 02:23:40 10° N 02:28:54 50° E 02:30:44 35° SE
COSMOS 2428 3.3 02:28:13 32° SE 02:29:34 37° ESE 02:34:47 10° NE
Cosmos 1302 Rocket 4.3 02:29:40 35° SE 02:31:07 43° ESE 02:36:05 10° NNE
Terra 3.6 02:33:36 17° ENE 02:34:08 17° ENE 02:37:09 10° NNE
Cosmos 1908 3.6 02:30:46 10° N 02:34:27 43° E 02:34:33 43° E
Cosmos 1461 3.7 02:31:13 10° N 02:35:00 34° ENE 02:35:32 33° ENE
Cosmos 1626 2.1 02:36:00 59° E 02:36:04 59° E 02:39:42 10° NNE
SPOT 5 4.0 02:36:46 27° E 02:37:42 29° ENE 02:41:56 10° NNE
Cosmos 1315 Rocket 4.3 02:34:02 10° NNW 02:37:47 34° W 02:40:17 18° SSW
Cosmos 1025 Rocket 2.9 02:38:31 48° SSE 02:39:35 69° E 02:43:55 10° NNE
Cosmos 1536 Rocket 4.5 02:39:57 32° E 02:39:57 32° E 02:43:39 10° NNE
ATLAS CENTAUR R/B 3.5 02:36:57 10° NNE 02:39:52 17° NE 02:40:49 16° ENE
Cosmos 2100 Rocket 4.0 02:34:28 10° N 02:40:47 66° E 02:43:23 36° SSE
Cosmos 1741 Rocket 3.9 02:36:43 10° NNW 02:42:00 78° ENE 02:43:44 43° SSE
Cosmos 1844 Rocket 3.0 02:37:00 10° N 02:42:30 50° ENE 02:44:09 38° ESE
Ariane Rocket 4.5 02:39:06 12° SSW 02:43:14 32° W 02:47:47 10° NW
SPOT 3 Rocket 3.7 02:42:00 30° S 02:44:30 67° WSW 02:49:40 10° NNW
USA 215 3.8 02:40:14 10° ENE 02:45:41 34° ESE 02:45:41 34° ESE
SL-4 R/B 3.1 02:43:14 10° SW 02:49:25 31° ENE 02:51:36 10° NE
CARTOSAT-1 3.6 02:52:06 55° E 02:52:19 56° ENE 02:56:33 10° N
MetOp-B 4.3 02:52:23 36° S 02:54:33 68° WSW 02:59:53 10° NNW
Cosmos 2173 Rocket 3.9 02:48:36 10° N 02:55:01 81° E 02:57:24 41° SSE
Cosmos 2263 Rocket 4.3 02:52:27 10° NW 02:56:27 20° W 03:00:27 10° SW
Lacrosse 5 2.7 02:52:43 10° NW 02:57:25 40° WSW 02:58:35 35° SSW
Cosmos 2016 Rocket 4.1 02:52:44 10° N 02:58:43 53° E 02:59:59 46° ESE
USA 245 3.9 02:58:44 54° S 02:59:50 80° W 03:05:23 10° NNW
ATLAS 2A CENTAUR R/B 3.0 02:47:59 10° WSW 03:02:53 43° S 03:03:32 42° SSE
Resurs 01 Rocket 3.5 03:06:34 18° SW 03:08:28 24° W 03:12:04 10° NW
Yuri Rocket 4.3 03:04:39 10° WSW 03:11:05 64° S 03:14:29 38° ESE
SL-14 R/B 3.5 03:12:10 69° NW 03:12:10 69° NW 03:15:56 10° N
Cosmos 1725 Rocket 4.0 03:06:29 10° N 03:12:35 60° E 03:13:33 54° ESE
Meteor 2-5 Rocket 3.5 03:14:26 66° SSE 03:15:07 76° E 03:20:41 10° NNE
H-2A R/B 4.4 03:16:18 10° NNE 03:18:57 38° NE 03:18:57 38° NE
Cosmos 2333 Rocket 3.0 03:16:10 12° SW 03:21:22 49° WNW 03:26:55 10° N
Cosmos 2219 Rocket 2.7 03:19:18 21° SW 03:22:57 56° WNW 03:28:33 10° N
Cosmos 1953 3.7 03:19:38 10° NNW 03:23:18 33° W 03:23:31 32° W
Cosmos 1802 Rocket 4.3 03:25:40 10° NNW 03:31:54 64° W 03:33:34 47° SSW
Cosmos 1844 3.7 03:31:17 10° NNW 03:36:49 64° WSW 03:37:07 63° SW
Geosat 4.0 03:42:57 76° NW 03:42:57 76° NW 03:47:37 10° NNW
Cosmos 2237 Rocket 2.8 03:44:17 44° ENE 03:44:17 44° ENE 03:48:22 10° NNE
Cosmos 1300 4.3 03:39:52 10° N 03:42:05 33° NNW 03:42:05 33° NNW
ERS-1 Rocket 3.3 03:44:13 56° W 03:44:13 56° W 03:49:04 10° NNW
ARIANE 5 R/B 3.9 03:45:36 34° W 03:45:36 34° W 03:49:22 10° NNW
Meteor 1-24 Rocket 3.8 03:49:56 61° W 03:50:07 62° W 03:55:30 10° N
NOSS 0 Rocket 3.9 03:58:45 70° WSW 03:59:19 75° WNW 04:05:33 10° NNE
Terra 3.1 04:12:29 35° WNW 04:12:29 35° WNW 04:15:58 10° NNW
ATLAS CENTAUR R/B 3.3 04:14:35 10° NW 04:16:58 28° WNW 04:16:58 28° WNW
Cosmos 2233 Rocket 4.3 04:13:41 10° NNW 04:19:39 57° W 04:19:39 57° W
Cosmos 2278 Rocket 2.8 04:17:58 10° NNW 04:22:35 50° NNE 04:22:35 50° NNE
USA 215 3.8 04:22:48 10° NNE 04:29:06 54° NW 04:32:56 24° WSW
Cosmos 1867 4.5 04:38:40 10° NNW 04:42:25 45° NW 04:42:25 45° NW
Cosmos 1943 Rocket 4.2 04:48:52 10° NNE 04:52:21 17° ENE 04:52:30 17° ENE
Cosmos 1607 4.3 04:46:24 10° NNW 04:51:54 59° NNE 04:51:54 59° NNE
Cosmos 1464 Rocket 4.4 05:02:11 10° NNW 05:07:30 59° NW 05:07:30 59° NW
ATLAS CENTAUR R/B 3.9 05:08:15 35° WNW 05:09:18 38° NNW 05:18:27 10° NNE
SL-16 R/B 3.1 05:25:29 44° NNW 05:25:29 44° NNW 05:29:40 10° N
Cosmos 2237 Rocket 4.3 05:26:03 16° WNW 05:27:16 17° WNW 05:30:50 10° NNW
SJ 16-02 3.7 05:29:13 10° N 05:30:54 21° N 05:30:54 21° N
USA 229 DEB 3.9 05:44:47 62° N 05:44:47 62° N 05:50:24 10° NNE
Cosmos 2369 Rocket 3.9 05:39:18 10° N 05:43:50 24° ENE 05:44:12 24° ENE
USA 229 3.9 05:44:55 61° N 05:44:55 61° N 05:50:30 10° NNE
BREEZE-M DEB (TANK) 3.9 05:57:01 74° NW 05:57:11 74° NW 06:14:50 10° NE
NOSS 3-1 (A) 4.1 06:04:55 42° NNW 06:04:55 42° NNW 06:09:22 10° NNE
SL-16 R/B 4.5 06:15:08 17° E 06:17:38 21° ENE 06:22:06 10° NNE
Resurs 1-4 Rocket 3.5 06:23:56 10° NNE 06:27:37 31° ENE 06:27:37 31° ENE
Cosmos 1943 Rocket 3.5 06:31:01 10° NNW 06:33:59 31° NW 06:33:59 31° NW
Cosmos 1943 3.9 06:38:48 49° NNW 06:38:48 49° NNW 06:43:13 10° NNE
ADEOS II 4.1 06:36:14 10° NE 06:39:37 19° E 06:39:37 19° E
USA 267 3.2 06:41:13 76° NW 06:41:13 76° NW 06:47:11 10° NW
CZ-2D R/B 2.9 06:43:08 10° NNE 06:47:12 45° ENE 06:47:12 45° ENE
Cosmos 540 Rocket 4.5 06:54:25 40° NNW 06:54:25 40° NNW 06:58:01 10° N
Cosmos 2221 4.2 06:53:25 10° N 06:55:40 30° N 06:55:40 30° N
Cosmos 841 Rocket 4.4 07:03:21 42° NNW 07:03:21 42° NNW 07:07:11 10° N
Cosmos 1656 Rocket 3.8 07:10:33 10° NNW 07:15:31 69° NNW 07:15:31 69° NNW
Cosmos 1937 Rocket 4.1 07:13:48 10° NNW 07:17:48 50° NW 07:17:48 50° NW
Helios 1B rocket 3.7 07:16:44 10° NNE 07:19:18 38° NNE 07:19:18 38° NNE
ARGOS Delta rocket 4.5 07:20:19 10° N 07:25:12 55° NW 07:25:12 55° NW
UNK 4.1 07:27:45 61° NNE 07:27:45 61° NNE 07:31:41 10° N
Cosmos 2369 Rocket 3.4 07:22:39 10° NW 07:25:57 30° WNW 07:25:57 30° WNW
Cosmos 2026 Rocket 3.8 07:29:40 75° SW 07:30:09 81° W 07:36:29 10° N
ATLAS 5 CENTAUR R/B 3.1 07:34:05 25° NNW 07:34:05 25° NNW 07:36:42 10° N
Meteor 2-15 Rocket 4.4 07:29:37 10° N 07:35:47 84° E 07:36:50 64° SSE
Meteor 2-15 4.3 07:31:06 10° N 07:37:13 72° W 07:37:35 70° WSW
SeaSat 1 3.6 07:35:42 10° NE 07:40:03 31° ESE 07:40:39 30° ESE
Lacrosse 4 Rocket 2.4 07:40:29 10° N 07:44:20 41° ENE 07:44:51 39° E
SL-19 R/B 4.1 07:40:31 10° N 07:45:49 69° WNW 07:46:09 67° W
Aureole 3 Rocket 3.7 07:44:31 10° NNW 07:48:34 55° WNW 07:48:34 55° WNW
Cosmos 1766 Rocket 4.0 07:50:38 53° ESE 07:50:54 54° E 07:55:16 10° NNE
Cosmos 372 Rocket 4.1 07:48:00 10° NNW 07:52:44 58° W 07:52:44 58° W
Landsat 4 4.5 07:50:17 10° N 07:53:07 49° N 07:53:07 49° N
ADEOS Rocket 3.4 07:53:19 26° SSE 07:57:52 82° ENE 08:04:45 10° N
IRIDIUM 114 4.5 07:53:52 10° N 07:59:05 69° E 08:00:34 46° SSE
SL-16 R/B 2.6 08:00:14 49° WSW 08:00:46 51° W 08:06:46 10° NNW
Okean 3 Rocket 3.5 08:02:09 69° SE 08:02:27 73° E 08:06:49 10° N
Cosmos 836 Rocket 4.4 08:03:56 64° SW 08:04:44 79° WNW 08:10:02 10° NNE
ARIANE 5 R/B 3.8 08:01:13 10° NE 08:05:41 32° E 08:08:15 20° SE
Cosmos 2266 Rocket 4.4 08:02:53 27° SSE 08:06:04 55° E 08:11:58 10° NNE
IRIDIUM 103 4.2 08:02:59 10° N 08:08:13 86° E 08:09:42 49° S
Resurs 1-4 Rocket 3.5 08:04:12 10° NNW 08:08:20 24° WNW 08:08:42 23° WNW
CZ-4C R/B 1.7 08:12:05 62° S 08:12:51 80° ESE 08:18:08 10° NNE
X-37B 3.8 08:13:04 10° NNW 08:14:46 14° NNE 08:16:27 10° NE
Centaur AC-125 4.4 08:17:32 11° ESE 08:17:32 11° ESE 08:17:41 10° ESE
ASTEX 1 3.7 08:16:26 26° SSE 08:19:09 63° E 08:24:02 10° N
ADEOS II 2.6 08:14:43 10° N 08:19:38 42° WNW 08:20:33 38° W
Meteor 2-3 Rocket 4.2 08:20:40 37° W 08:21:35 40° WNW 08:26:48 10° N
OAO 3 Rocket 3.6 08:22:51 42° SSE 08:23:13 43° SSE 08:27:44 10° E
IRIDIUM 106 4.3 08:21:21 10° N 08:26:29 61° W 08:27:59 43° SSW
CZ-2D R/B 3.9 08:24:52 10° NNW 08:27:47 15° WNW 08:28:31 15° WNW
CZ-2C R/B 2.3 08:33:06 26° SE 08:33:06 26° SE 08:35:31 10° E
IDEFIX/ARIANE 42P 2.6 08:28:30 10° N 08:33:39 61° WNW 08:35:30 38° SW
GPS 2-04 Rocket1 3.3 08:32:08 25° WNW 08:34:12 53° N 08:37:58 10° E
Cosmos 1812 3.4 08:30:35 10° N 08:34:19 51° E 08:36:50 19° SSE
Intelsat 5-2 Rocket 4.5 08:35:13 19° SSE 08:35:13 19° SSE 08:38:09 10° ESE
Cosmos 1655 Rocket 3.9 08:32:03 32° SSW 08:35:02 71° W 08:41:16 10° N
COSMOS 2406 3.7 08:32:03 24° S 08:35:21 56° ESE 08:40:52 10° NNE
ERBS 4.5 08:35:36 15° NW 08:35:53 15° NW 08:37:51 10° N
Meteor 2-16 Rocket 4.4 08:33:34 30° SSW 08:36:48 77° W 08:42:56 10° N
Delta 2 Rocket 3.3 08:37:21 38° W 08:38:47 70° NNW 08:42:33 10° ENE
Cosmos 2084 Rocket 3.2 08:41:46 48° SW 08:42:43 72° WNW 08:46:39 10° NNE
Cosmos 1782 3.1 08:39:30 10° NNW 08:43:20 45° W 08:43:51 42° WSW
Cosmos 1271 Rocket 2.5 08:39:39 10° N 08:43:24 81° W 08:44:52 36° S
CZ-4C R/B 2.8 08:42:56 44° S 08:43:55 78° WSW 08:47:22 10° NNW
SL-08 R/B 4.3 08:40:20 10° SE 08:44:45 46° ENE 08:49:15 10° N
Cosmos 1500 Rocket 3.6 08:52:34 20° S 08:55:32 76° E 08:59:50 10° N
CZ-2C R/B 3.2 08:51:30 10° NNE 08:56:13 48° E 09:00:45 10° S
IRS-1C 4.4 08:53:56 10° N 08:59:07 53° WNW 09:02:14 23° SW
Tianhe-1 2.1 08:58:01 26° WNW 08:59:16 39° NNW 09:02:16 10° NE
Cosmos 1743 Rocket 3.5 08:56:53 19° S 08:59:58 84° E 09:04:23 10° N
Cosmos 1328 Rocket 3.9 08:59:08 10° NNW 09:03:16 43° W 09:05:32 23° SSW
ASC 2 Rocket 4.3 09:02:41 24° SW 09:03:49 26° SSW 09:07:32 10° SE
Cosmos 2315 Rocket 4.0 09:00:21 10° N 09:06:34 85° E 09:12:47 10° S
Cosmos 773 Rocket 4.1 09:03:52 23° SW 09:07:10 60° WNW 09:12:24 10° N
ATLAS 2A CENTAUR R/B 3.2 09:06:09 26° SW 09:07:48 43° S 09:17:12 10° ESE
Cosmos 44 3.6 09:07:13 22° SW 09:10:31 65° WNW 09:15:54 10° NNE
Chunghua 1 4.3 09:09:38 13° WNW 09:12:49 79° SSW 09:16:27 10° ESE
OAO 1 4.5 09:10:34 10° WNW 09:16:04 87° SSW 09:21:34 10° ESE
SeaSat 1 3.7 09:13:17 10° N 09:17:24 27° WNW 09:20:26 15° WSW
USA 281 3.3 09:13:25 10° S 09:19:49 56° WSW 09:26:16 10° NNW
ALOS 3.1 09:16:53 10° NNE 09:21:26 51° E 09:25:57 10° S
Sich 1 3.7 09:17:12 10° S 09:21:27 58° E 09:25:47 10° NNE
Cosmos 2228 Rocket 3.7 09:18:50 10° N 09:23:15 58° E 09:27:36 10° SSE
Cosmos 1818 3.8 09:23:03 11° SSW 09:28:17 72° ESE 09:33:43 10° NNE
FALCON 9 DEB 3.9 09:25:58 10° WNW 09:28:56 28° SW 09:31:52 10° S
Cosmos 1833 Rocket 3.3 09:27:13 15° SW 09:31:33 42° WNW 09:36:54 10° N
Meteor 1-10 Rocket 4.4 09:25:53 10° NNW 09:31:36 57° W 09:37:09 10° S
Cosmos 1538 Rocket 4.1 09:28:23 10° SSW 09:33:39 71° WNW 09:38:58 10° NNE
Cosmos 1515 Rocket 4.3 09:30:42 10° NNW 09:34:43 35° W 09:38:45 10° SSW
NOSS 3-4 (A) 3.3 09:29:34 13° SW 09:34:48 73° WNW 09:40:49 10° NNE
NOSS 3-4 (C) 3.3 09:29:40 13° SW 09:34:55 74° WNW 09:40:56 10° NNE
Cosmos 1980 Rocket 4.5 09:32:18 10° N 09:37:06 29° ENE 09:41:52 10° ESE
Lacrosse 5 rocket 3.0 09:37:01 10° NNW 09:40:25 35° NE 09:43:56 10° ESE
BREEZE-M DEB (TANK) 4.1 09:39:28 10° W 09:43:13 28° NNW 09:45:45 10° NNE
ARIANE 5 R/B 3.8 09:40:42 10° NNW 09:44:33 23° WNW 09:48:24 10° WSW
Cosmos 1484 Rocket 3.2 09:41:28 10° NNE 09:45:08 59° E 09:48:48 10° S
FENGYUN 3A 3.7 09:39:55 10° N 09:45:21 80° WNW 09:50:46 10° SSW
ATLAS 2AS CENTAUR R/B 3.3 09:37:37 10° SSW 09:45:25 72° ESE 09:53:16 10° NE
Gbstr 26 Del rocket 3.5 09:42:00 11° SW 09:46:19 66° NW 09:51:59 10° NE
Meteor 1-27 Rocket 3.7 09:41:53 10° NNW 09:47:23 70° W 09:52:50 10° S
NOSS 3-2 (A) 4.2 09:39:32 10° NNW 09:47:34 85° WSW 09:56:22 10° SSE
Cosmos 1633 Rocket 3.8 09:46:33 10° S 09:50:51 57° E 09:55:11 10° NNE
METEOR-M 4.3 09:46:06 10° NNE 09:51:28 78° ESE 09:56:47 10° S
X-37B 1.1 09:48:42 10° NW 09:51:51 63° NNE 09:54:59 10° ESE
Meteor 1-25 Rocket 4.3 09:47:42 10° S 09:53:32 82° W 09:59:23 10° N
Cosmos 2082 Rocket 2.4 09:49:28 10° SW 09:54:57 56° WNW 10:00:28 10° N
Cosmos 1602 3.7 09:51:09 10° S 09:55:01 82° W 09:58:56 10° N
SL-08 ROCKET BODY 4.5 09:52:33 10° SSW 09:58:17 59° W 10:04:04 10° N
Cosmos 1707 Rocket 4.2 09:55:34 10° N 09:59:53 61° E 10:04:10 10° SSE
RESURS DK-1 4.1 09:56:39 10° SSE 10:00:17 31° ESE 10:03:58 10° NE
ATLAS 3B CENTAUR R/B 4.4 09:48:01 10° W 10:07:00 59° SSW 10:16:47 10° SE
